27 juin 2022

Temps Code Temps Temp. Vue Base cloud Vent METAR/SPECI
4:25 pm
M
63 °F 6¼ mi+ 1.500 ft 220° 220° 11 kt METAR EHLE 271425Z AUTO 22011KT 200V260 9999 -RA BKN015CB 17/15 Q1017 RETS TEMPO 6000 RA -SHRA FEW025CB
3:55 pm
V
64 °F 5⅝ mi - 190° 190° 7 kt METAR EHLE 271355Z AUTO 19007KT 9000 TSRA FEW015CB 18/16 Q1017 TEMPO 4000 SHRA TSRA SCT025CB
3:25 pm
V
66 °F 6¼ mi+ - 190° 190° 6 kt METAR EHLE 271325Z AUTO 19006KT 9999 -RA NSC 19/15 Q1016 TEMPO 4000 SHRA TSRA SCT025CB
2:55 pm
V
68 °F 6¼ mi+ - Var Var 2 kt METAR EHLE 271255Z AUTO VRB02KT 9999 NSC 20/14 Q1015 TEMPO 4000 SHRA TSRA SCT025CB
2:25 pm
V
68 °F 6¼ mi+ - Var Var 2 kt METAR EHLE 271225Z AUTO VRB02KT 9999 NSC 20/14 Q1015 NOSIG
1:55 pm
V
68 °F 5 mi - Var Var 2 kt METAR EHLE 271155Z AUTO VRB02KT 8000 NSC 20/13 Q1016 NOSIG
1:25 pm
V
68 °F 6¼ mi+ - Var Var 2 kt METAR EHLE 271125Z AUTO VRB02KT 9999 NSC 20/14 Q1015 NOSIG
12:55 pm
V
68 °F 6¼ mi+ - Var Var 2 kt METAR EHLE 271055Z AUTO VRB02KT 9999 NSC 20/14 Q1015 NOSIG
12:25 pm
V
68 °F 6¼ mi+ - Var Var 2 kt METAR EHLE 271025Z AUTO VRB02KT 9999 NSC 20/14 Q1016 NOSIG
11:55 am
V
66 °F 6¼ mi+ - 150° 150° 3 kt METAR EHLE 270955Z AUTO 15003KT 110V180 9999 NSC 19/14 Q1016 NOSIG
11:25 am
V
66 °F 6¼ mi+ - 150° 150° 3 kt METAR EHLE 270925Z AUTO 15003KT 100V230 9999 NSC 19/15 Q1015 NOSIG
10:55 am
V
66 °F 6¼ mi+ - 230° 230° 4 kt METAR EHLE 270855Z AUTO 23004KT 190V270 9999 NSC 19/15 Q1015 NOSIG
10:25 am
V
66 °F 6¼ mi+ - 150° 150° 3 kt METAR EHLE 270825Z AUTO 15003KT 110V210 9999 NSC 19/15 Q1015 NOSIG
9:55 am
V
64 °F 6¼ mi+ - 120° 120° 2 kt METAR EHLE 270755Z AUTO 12002KT 9999 NSC 18/15 Q1014 NOSIG
9:25 am
V
63 °F 6¼ mi+ - Var Var 2 kt METAR EHLE 270725Z AUTO VRB02KT 9999 NSC 17/15 Q1015 NOSIG
8:55 am
V
63 °F 6¼ mi+ - 230° 230° 3 kt METAR EHLE 270655Z AUTO 23003KT 9999 NSC 17/15 Q1015 NOSIG
8:25 am
V
63 °F 6¼ mi+ - Var Var 2 kt METAR EHLE 270625Z AUTO VRB02KT 9999 NSC 17/15 Q1014 NOSIG
7:55 am
V
63 °F 6¼ mi+ - Var Var 1 kt METAR EHLE 270555Z AUTO VRB01KT 9999 NSC 17/15 Q1014 NOSIG
7:25 am
V
61 °F 6¼ mi+ - 060° 060° 1 kt METAR EHLE 270525Z AUTO 06001KT 9999 NSC 16/15 Q1014 NOSIG
6:55 am
V
59 °F 6¼ mi+ - Var Var 2 kt METAR EHLE 270455Z AUTO VRB02KT 9999 NSC 15/14 Q1014 NOSIG
6:25 am
V
57 °F 6¼ mi+ - 110° 110° 1 kt METAR EHLE 270425Z AUTO 11001KT 9999 NSC 14/14 Q1014
5:55 am
V
59 °F 6¼ mi+ - Var 000° 0 kt METAR EHLE 270355Z AUTO 00000KT 9999 NSC 15/15 Q1014
5:25 am
V
59 °F 6¼ mi+ - Var Var 1 kt METAR EHLE 270325Z AUTO VRB01KT 9999 NSC 15/15 Q1015
4:55 am
V
61 °F 6¼ mi+ - Var 000° 0 kt METAR EHLE 270255Z AUTO 00000KT 9999 NSC 16/15 Q1015
4:25 am
V
61 °F 6¼ mi+ - Var Var 2 kt METAR EHLE 270225Z AUTO VRB02KT 9999 NSC 16/15 Q1015
3:55 am
V
61 °F 6¼ mi+ - 150° 150° 2 kt METAR EHLE 270155Z AUTO 15002KT 9999 NSC 16/15 Q1015
3:25 am
V
61 °F 6¼ mi+ - 110° 110° 3 kt METAR EHLE 270125Z AUTO 11003KT 9999 NSC 16/15 Q1015
2:55 am
V
61 °F 6¼ mi+ - 270° 270° 1 kt METAR EHLE 270055Z AUTO 27001KT 9999 NSC 16/15 Q1015
2:25 am
V
61 °F 6¼ mi+ - Var Var 1 kt METAR EHLE 270025Z AUTO VRB01KT 9999 NSC 16/15 Q1015
1:55 am
V
61 °F 6¼ mi+ - 030° 030° 1 kt METAR EHLE 262355Z AUTO 03001KT 9999 NSC 16/14 Q1015
1:25 am
V
61 °F 6¼ mi+ - 050° 050° 3 kt METAR EHLE 262325Z AUTO 05003KT 9999 NSC 16/14 Q1015
12:55 am
V
61 °F 6¼ mi+ - 090° 090° 4 kt METAR EHLE 262255Z AUTO 09004KT 9999 NSC 16/14 Q1015
12:25 am
V
63 °F 6¼ mi+ - 100° 100° 3 kt METAR EHLE 262225Z AUTO 10003KT 9999 NSC 17/14 Q1015

26 juin 2022

Temps Code Temps Temp. Vue Base cloud Vent METAR/SPECI
11:55 pm
V
61 °F 6¼ mi+ - 050° 050° 2 kt METAR EHLE 262155Z AUTO 05002KT 9999 NSC 16/14 Q1016
11:25 pm
V
61 °F 6¼ mi+ - 080° 080° 3 kt METAR EHLE 262125Z AUTO 08003KT 9999 NSC 16/14 Q1015
10:55 pm
V
63 °F 6¼ mi+ - 140° 140° 4 kt METAR EHLE 262055Z AUTO 14004KT 9999 NSC 17/15 Q1016
10:25 pm
V
64 °F 6¼ mi+ - 110° 110° 2 kt METAR EHLE 262025Z AUTO 11002KT 9999 NSC 18/13 Q1015
9:55 pm
V
66 °F 6¼ mi+ - Var Var 1 kt METAR EHLE 261955Z AUTO VRB01KT 9999 NSC 19/14 Q1015
9:25 pm
V
66 °F 6¼ mi+ - Var Var 1 kt METAR EHLE 261925Z AUTO VRB01KT 9999 NSC 19/14 Q1015 NOSIG
8:55 pm
V
66 °F 6¼ mi+ - 220° 220° 2 kt METAR EHLE 261855Z AUTO 22002KT 9999 NSC 19/13 Q1015 NOSIG
8:25 pm
V
66 °F 6¼ mi+ - 190° 190° 3 kt METAR EHLE 261825Z AUTO 19003KT 150V210 9999 NSC 19/14 Q1015 NOSIG
7:55 pm
V
66 °F 6¼ mi+ - 160° 160° 4 kt METAR EHLE 261755Z AUTO 16004KT 9999 NSC 19/14 Q1015 NOSIG
7:25 pm
V
68 °F 6¼ mi+ - 180° 180° 7 kt METAR EHLE 261725Z AUTO 18007KT 9999 NSC 20/14 Q1015 NOSIG
6:55 pm
V
66 °F 6¼ mi+ - 160° 160° 9 kt METAR EHLE 261655Z AUTO 16009KT 130V190 9999 NSC 19/14 Q1015 NOSIG
6:25 pm
V
68 °F 6¼ mi+ - 150° 150° 8 kt METAR EHLE 261625Z AUTO 15008KT 9999 NSC 20/14 Q1015 NOSIG
5:55 pm
V
68 °F 6¼ mi+ - 160° 160° 9 kt METAR EHLE 261555Z AUTO 16009KT 120V190 9999 NSC 20/14 Q1016 NOSIG
5:25 pm
V
68 °F 6¼ mi+ - 160° 160° 9 kt METAR EHLE 261525Z AUTO 16009KT 9999 NSC 20/14 Q1016 NOSIG
4:55 pm
V
68 °F 6¼ mi+ - 150° 150° 9 kt METAR EHLE 261455Z AUTO 15009KT 9999 NSC 20/14 Q1016 NOSIG
4:25 pm
V
68 °F 6¼ mi+ - 170° 170° 8 kt METAR EHLE 261425Z AUTO 17008KT 140V200 9999 NSC 20/13 Q1016 NOSIG
3:55 pm
V
68 °F 6¼ mi+ - 170° 170° 7 kt METAR EHLE 261355Z AUTO 17007KT 140V200 9999 NSC 20/13 Q1016 NOSIG
3:25 pm
V
66 °F 6¼ mi+ - 180° 180° 8 kt METAR EHLE 261325Z AUTO 18008KT 140V210 9999 NSC 19/13 Q1016 NOSIG
2:55 pm
V
70 °F 6¼ mi+ - 170° 170° 9 kt METAR EHLE 261255Z AUTO 17009KT 140V220 9999 FEW030 21/14 Q1016 NOSIG
2:25 pm
M
68 °F 6¼ mi+ 2.500 ft 200° 200° 8 kt METAR EHLE 261225Z AUTO 20008KT 150V230 9999 BKN025 BKN028 BKN037 20/15 Q1016 NOSIG
1:55 pm
V
68 °F 6¼ mi+ - 200° 200° 9 kt METAR EHLE 261155Z AUTO 20009KT 170V230 9999 FEW025 20/14 Q1016 NOSIG
1:25 pm
V
68 °F 6¼ mi+ - 190° 190° 8 kt METAR EHLE 261125Z AUTO 19008KT 150V230 9999 NSC 20/14 Q1016 NOSIG
12:55 pm
V
66 °F 6¼ mi+ - 210° 210° 6 kt METAR EHLE 261055Z AUTO 21006KT 170V260 9999 NSC 19/14 Q1015 NOSIG
12:25 pm
V
66 °F 6¼ mi+ - 190° 190° 7 kt METAR EHLE 261025Z AUTO 19007KT 170V230 9999 NSC 19/13 Q1015 NOSIG
11:55 am
V
66 °F 6¼ mi+ - 230° 230° 7 kt METAR EHLE 260955Z AUTO 23007KT 200V260 9999 NSC 19/14 Q1015 NOSIG
11:25 am
V
66 °F 6¼ mi+ - 220° 220° 6 kt METAR EHLE 260925Z AUTO 22006KT 9999 NSC 19/15 Q1015 NOSIG
10:55 am
V
66 °F 6¼ mi+ - 230° 230° 8 kt METAR EHLE 260855Z AUTO 23008KT 170V260 9999 SCT019 19/15 Q1015 NOSIG
10:25 am
M
68 °F 6¼ mi+ 1.600 ft 240° 240° 7 kt METAR EHLE 260825Z AUTO 24007KT 210V280 9999 BKN016 20/16 Q1015 NOSIG
9:55 am
M
64 °F 6¼ mi+ 1.500 ft 220° 220° 8 kt METAR EHLE 260755Z AUTO 22008KT 190V260 9999 BKN015 BKN020 18/15 Q1015 NOSIG
9:25 am
M
64 °F 6¼ mi+ 1.700 ft 210° 210° 7 kt METAR EHLE 260725Z AUTO 21007KT 170V260 9999 SCT013 BKN017 BKN020 18/15 Q1014 NOSIG
8:55 am
M
63 °F 6¼ mi+ 1.300 ft 220° 220° 9 kt METAR EHLE 260655Z AUTO 22009KT 9999 SCT010 BKN013 BKN015 17/15 Q1014 NOSIG
8:25 am
V
63 °F 6¼ mi+ - 230° 230° 7 kt METAR EHLE 260625Z AUTO 23007KT 9999 SCT009 SCT010 17/15 Q1013 NOSIG
7:55 am
V
61 °F 6¼ mi+ - 220° 220° 8 kt METAR EHLE 260555Z AUTO 22008KT 190V250 9999 NSC 16/15 Q1013 NOSIG
7:25 am
V
61 °F 5⅝ mi - 220° 220° 6 kt METAR EHLE 260525Z AUTO 22006KT 180V240 9000 NCD 16/15 Q1013 NOSIG
6:55 am
V
61 °F 5 mi - 210° 210° 6 kt METAR EHLE 260455Z AUTO 21006KT 180V240 8000 NSC 16/15 Q1013
6:25 am
V
61 °F 5⅝ mi - 230° 230° 7 kt METAR EHLE 260425Z AUTO 23007KT 9000 NSC 16/15 Q1012
5:55 am
V
61 °F 5⅝ mi - 230° 230° 5 kt METAR EHLE 260355Z AUTO 23005KT 9000 SCT010 16/15 Q1012
5:25 am
M
61 °F 5 mi 1.100 ft 230° 230° 4 kt METAR EHLE 260325Z AUTO 23004KT 8000 FEW009 BKN011 BKN013 16/15 Q1012
4:55 am
M
63 °F 6¼ mi+ 2.000 ft 210° 210° 6 kt METAR EHLE 260255Z AUTO 21006KT 9999 SCT010 SCT013 BKN020 17/16 Q1012
4:25 am
M
63 °F 6¼ mi+ 2.400 ft 220° 220° 8 kt METAR EHLE 260225Z AUTO 22008KT 9999 FEW014 OVC024 17/16 Q1012
3:55 am
V
63 °F 6¼ mi+ - 190° 190° 4 kt METAR EHLE 260155Z AUTO 19004KT 9999 FEW015CB 17/16 Q1012 REDZ
3:25 am
V
63 °F 6¼ mi+ - 190° 190° 4 kt METAR EHLE 260125Z AUTO 19004KT 150V210 9999 FEW015CB 17/16 Q1011 RERA
2:55 am
M
63 °F 3⅛ mi - 190° 190° 5 kt METAR EHLE 260055Z AUTO 19005KT 160V220 5000 SHRA FEW015CB 17/17 Q1011
2:25 am
V
63 °F 6¼ mi+ - 180° 180° 5 kt METAR EHLE 260025Z AUTO 18005KT 9999 NSC 17/17 Q1011
1:55 am
V
63 °F 5 mi - 190° 190° 6 kt METAR EHLE 252355Z AUTO 19006KT 8000 SHRA FEW015CB 17/17 Q1011
1:25 am
M
63 °F 4⅜ mi - 260° 260° 5 kt METAR EHLE 252325Z AUTO 26005KT 230V300 7000 +SHRA SCT015CB 17/17 Q1011 REUP
12:55 am
M
64 °F 3¾ mi 3.700 ft 170° 170° 3 kt METAR EHLE 252255Z AUTO 17003KT 120V240 6000 FEW015CB BKN037 BKN041 18/17 Q1011
12:25 am
M
64 °F 4⅜ mi - 040° 040° 3 kt METAR EHLE 252225Z AUTO 04003KT 7000 FEW015CB 18/17 Q1011

25 juin 2022

Temps Code Temps Temp. Vue Base cloud Vent METAR/SPECI
11:55 pm
V
64 °F 5 mi - 030° 030° 4 kt METAR EHLE 252155Z AUTO 03004KT 350V060 8000 -RA FEW001 FEW015CB SCT048 18/17 Q1011 RERA REDZ
11:25 pm
V
64 °F 5⅝ mi - 020° 020° 3 kt METAR EHLE 252125Z AUTO 02003KT 9000 -RA FEW046 18/17 Q1011
10:55 pm
V
64 °F 6¼ mi+ - 340° 340° 4 kt METAR EHLE 252055Z AUTO 34004KT 9999 NSC 18/17 Q1011
10:25 pm
V
64 °F 5 mi - 330° 330° 3 kt METAR EHLE 252025Z AUTO 33003KT 290V350 8000 SCT016 SCT039 18/17 Q1012 REDZ
9:55 pm
M
64 °F 5⅝ mi 1.400 ft 280° 280° 4 kt METAR EHLE 251955Z AUTO 28004KT 250V320 9000 BKN014 BKN040 BKN049 18/17 Q1012 TEMPO 6000 SHRA
9:25 pm
V
64 °F 6¼ mi+ 4.400 ft 270° 270° 3 kt METAR EHLE 251925Z AUTO 27003KT 9999 -RA FEW015CB SCT032 BKN044 18/17 Q1011 TEMPO 6000 SHRA
8:55 pm
V
64 °F 6¼ mi+ 3.700 ft 270° 270° 3 kt METAR EHLE 251855Z AUTO 27003KT 230V300 9999 -SHRA FEW015CB SCT032 BKN037 18/17 Q1011 RERA TEMPO 6000 SHRA
8:25 pm
V
66 °F 6¼ mi+ - 320° 320° 3 kt METAR EHLE 251825Z AUTO 32003KT 280V010 9999 FEW015CB 19/17 Q1011 TEMPO 6000 SHRA
7:55 pm
V
66 °F 6¼ mi+ - 020° 020° 5 kt METAR EHLE 251755Z AUTO 02005KT 9999 FEW015CB 19/17 Q1010 RETS TEMPO 6000 SHRA
7:25 pm
V
66 °F 6¼ mi+ - 050° 050° 6 kt METAR EHLE 251725Z AUTO 05006KT 9999 -TSRA FEW045 19/17 Q1010 BECMG NSW
6:55 pm
V
70 °F 6¼ mi+ - 040° 040° 7 kt METAR EHLE 251655Z AUTO 04007KT 010V070 9999 NSC 21/16 Q1010 TEMPO 5000 SHRA SCT030CB
6:25 pm
V
70 °F 6¼ mi+ - 040° 040° 6 kt METAR EHLE 251625Z AUTO 04006KT 360V080 9999 NSC 21/16 Q1011 NOSIG
5:55 pm
V
70 °F 6¼ mi+ - 010° 010° 6 kt METAR EHLE 251555Z AUTO 01006KT 330V050 9999 NSC 21/17 Q1011 NOSIG
5:25 pm
V
68 °F 6¼ mi+ - 020° 020° 6 kt METAR EHLE 251525Z AUTO 02006KT 340V040 9999 NSC 20/16 Q1011 NOSIG
4:55 pm
V
68 °F 6¼ mi+ 4.600 ft 020° 020° 4 kt METAR EHLE 251455Z AUTO 02004KT 330V050 9999 -RA SCT042 BKN046 20/16 Q1011 NOSIG
Données plus anciennes

Télécharge notre application

Un accès facile à toute la météo aéronautique sur ton téléphone portable et ta tablette.
Avec de nombreuses fonctionnalités non disponibles sur le site Web, comme la prise en charge hors ligne et une liste personnelle d'aéroports.

Nous et des tiers suivons ton comportement sur Internet sur notre site Web à l'aide de cookies. Si tu continues, nous supposons que tu acceptes notre politique en matière de cookies. Apprendre plus